Location: *
(60.1759°S, 155.0663°W)
Time: 11:41:21
(UTC+00:00)

Cosmos 1980 Rocket - Pass Details

Date: 17 September 2019
Orbit: 828 x 851 km, 71.0° (Epoch: 14 October)

Event Time Altitude Azimuth Distance (km) Brightness Sun altitude
Rises 13:01:34 0° 224° (SW) 3,442 5.4 -23.9°
Reaches altitude 10° 13:04:05 10° 220° (SW) 2,500 4.7 -23.7°
Maximum altitude 13:09:47 61° 139° (SE) 966 2.7 -23.1°
Drops below altitude 10° 13:15:24 10° 58° (ENE) 2,467 4.8 -22.6°
Sets 13:17:52 0° 54° (NE) 3,394 5.5 -22.4°
